[[{"header":{"parameterUnit":"m.s-1","parameterCategory":1,"la1":30.2991,"la2":30.254,"lo1":-89.0895,"lo2":-89.0444,"dy":0.0017,"dx":0.0017,"nx":28,"ny":28,"refTime":"2025-05-16T21:00:00:Z","depth":0,"parameterNumber":2,"parameterNumberName":"U-component_of_WINDS"},"data":[0,0,0,0,0,0,0,0,0,0,0,0,0,0,0,0,0,0,0,0,0,0,0,0,0,0,0,0,0,0,0,0,0,0,0,0,0,0,0,0,0,0,0,0,0,0,0,0,0,0,0,0,0,0,0,0,0,0,1.6229,1.623,0,1.6294,1.6294,1.6295,1.6281,1.628,1.6279,1.6278,1.6342,1.6345,1.6348,0,0,0,0,0,0,0,0,0,0,0,0,0,1.6091,1.6094,1.6229,1.623,1.6231,1.6294,1.6294,1.6295,1.6282,1.628,1.6279,1.6277,1.6341,1.6345,1.6348,0,0,0,0,0,0,0,0,0,0,0,0,0,1.6153,1.6095,1.6229,1.6232,1.6232,1.6293,1.6294,1.6296,1.6282,1.628,1.6278,1.6277,1.634,1.6344,1.6348,1.641,0,0,1.6361,1.6363,0,0,0,0,0,0,0,0,1.615,1.6158,1.623,1.6232,1.6233,1.6278,1.6269,1.6334,1.6282,1.6263,1.6278,1.6276,1.6322,1.6328,1.6344,1.6413,1.6416,1.6362,1.6364,1.6366,1.6367,0,0,0,0,0,0,0,1.6145,1.6155,1.6255,1.6231,1.6233,1.6228,1.6235,1.6282,1.6302,1.6265,1.6264,1.6272,1.6322,1.634,1.6345,1.6417,1.6362,1.6365,1.6368,1.637,1.6538,1.654,0,0,0,0,0,0,1.614,1.6152,1.6253,1.6257,1.6186,1.6232,1.624,1.6265,1.6301,1.6305,1.6273,1.6271,1.6333,1.634,1.6347,1.642,1.6366,1.637,1.6372,1.6536,1.6539,1.6541,0,0,0,0,0,0,1.6138,1.615,1.625,1.6204,1.6216,1.6237,1.6265,1.6267,1.6284,1.6308,1.6311,1.6287,1.6332,1.6341,1.6394,1.6422,1.6372,1.6376,1.6534,1.6537,1.654,1.6568,0,0,0,0,0,0,1.6134,1.6149,1.6173,1.6205,1.6219,1.6297,1.6267,1.627,1.6292,1.629,1.6322,1.6325,1.6331,1.6388,1.6398,1.6427,1.6379,1.6531,1.6535,1.6539,1.6565,1.6572,1.6577,0,0,0,0,0,1.6129,1.6179,1.6174,1.6187,1.625,1.6299,1.6307,1.6313,1.6294,1.6318,1.6333,1.6324,1.6418,1.6394,1.6405,1.6436,1.653,1.6534,1.6538,1.6562,1.657,1.6577,0,0,0,0,0,0,1.615,1.6183,1.6179,1.624,1.6267,1.6296,1.6327,1.6322,1.6354,1.635,1.6356,1.6364,1.6417,1.6432,1.6404,1.6496,1.6471,1.6478,1.6485,1.6493,1.6499,1.6494,1.6383,0,0,0,0,0,1.6162,1.6199,1.6226,1.6278,1.6291,1.6307,1.6328,1.6331,1.6358,1.6369,1.6388,1.6414,1.6449,1.6472,1.6506,1.6567,1.6573,1.6593,1.66,1.6605,1.661,1.6642,1.6651,1.6555,1.6555,1.6555,0,0,1.6186,1.6209,1.6232,1.6282,1.6303,1.634,1.6316,1.6357,1.6385,1.6375,1.6426,1.644,1.647,1.6527,1.6553,1.6541,1.6638,1.6611,1.6614,1.6617,1.6647,1.6656,1.6664,1.6558,1.6557,1.6557,0,0,1.625,1.6272,1.6317,1.6338,1.637,1.6379,1.639,1.642,1.6429,1.6481,1.6474,1.6506,1.6567,1.6587,1.6606,1.6676,1.6668,1.6687,1.672,1.675,1.6758,1.6764,1.6788,1.6796,1.6692,1.6693,1.6693,0,1.6277,1.6334,1.634,1.6381,1.6403,1.6396,1.644,1.646,1.6501,1.6515,1.6502,1.6576,1.6596,1.6657,1.6674,1.6689,1.67,1.6683,1.6756,1.6763,1.6769,1.6792,1.68,1.6694,1.6694,1.6694,1.6694,0,1.6363,1.6403,1.6435,1.6475,1.65,1.6542,1.6554,1.6579,1.6579,1.659,1.6641,1.6664,1.6701,1.6716,1.6717,1.6776,1.6767,1.6755,1.6729,1.678,1.6801,1.681,1.6697,1.6696,1.6696,1.6695,0,0,1.6442,1.6484,1.6496,1.6513,1.6547,1.6577,1.6619,1.6655,1.6675,1.6703,1.6737,1.6788,1.6776,1.6797,1.68,1.6827,1.6879,1.6811,1.6812,1.6821,1.6943,1.6951,1.6961,1.6874,1.6876,1.6877,1.694,0,1.6508,1.6582,1.6588,1.6654,1.6689,1.6683,1.6719,1.6743,1.6754,1.6785,1.6797,1.6832,1.6815,1.6827,1.6854,1.6867,1.6903,1.6863,1.6904,1.6905,1.6896,1.6972,1.6981,1.704,1.6949,1.695,1.6951,0,1.6594,1.6625,1.6694,1.6722,1.6737,1.6769,1.6802,1.6832,1.6859,1.6865,1.6888,1.6886,1.6927,1.6901,1.6957,1.6929,1.6946,1.6955,1.6957,1.696,1.693,1.6976,1.7059,1.7067,1.6964,1.6963,1.6962,0,1.6642,1.6701,1.675,1.6765,1.6799,1.6821,1.6836,1.6861,1.6882,1.6911,1.6924,1.6957,1.6975,1.7,1.7007,1.6988,1.7062,1.7037,1.7067,1.7066,1.7082,1.708,1.7167,1.7095,1.7095,1.7095,1.7095,0,1.6714,1.6756,1.6771,1.6801,1.6848,1.6854,1.69,1.6913,1.6935,1.6966,1.6963,1.6992,1.7,1.7031,1.7036,1.708,1.7089,1.7094,1.7094,1.7093,1.7092,1.7104,1.7099,1.7097,1.7097,1.7097,1.7096,0,1.6775,1.6787,1.6839,1.6867,1.6875,1.6908,1.6931,1.6959,1.6969,1.7008,1.7018,1.7034,1.7069,1.7079,1.7121,1.7125,1.7176,1.7174,1.7167,1.7167,1.7195,1.7192,1.7291,1.7304,1.7225,1.7226,1.7227,0,1.6819,1.6851,1.6882,1.6903,1.6919,1.6953,1.6974,1.6982,1.7004,1.7036,1.7059,1.7094,1.7122,1.7178,1.7193,1.7225,1.7222,1.7255,1.7227,1.7224,1.7221,1.7218,1.722,1.726,1.7261,1.7261,1.7262,0,1.6895,1.6899,1.6931,1.6964,1.699,1.7016,1.7042,1.7059,1.7069,1.7094,1.713,1.7152,1.7195,1.7229,1.7261,1.7275,1.7269,1.7271,1.7279,1.7277,1.7271,1.7273,1.718,1.7268,1.7267,1.7267,1.7267,1.7266,1.6948,1.6976,1.7001,1.7036,1.7056,1.7079,1.7106,1.712,1.7151,1.7186,1.7189,1.7227,1.7251,1.7293,1.7309,1.7338,1.7329,1.7341,1.7344,1.7347,1.7348,1.7268,1.7345,1.7344,1.7344,1.7344,1.7344,0,1.7022,1.7039,1.7071,1.7106,1.7133,1.7127,1.7154,1.7176,1.721,1.7234,1.7261,1.7302,1.7334,1.7351,1.7383,1.7403,1.7401,1.7411,1.7409,1.7412,1.7356,1.7345,1.7412,1.7412,1.7412,1.7412,1.7412,1.7412,1.7064,1.711,1.7117,1.7172,1.7188,1.7226,1.7242,1.7263,1.7281,1.7327,1.7354,1.7365,1.7385,1.7418,1.7447,1.7451,1.7463,1.7473,1.7476,1.7423,1.7416,1.7409,1.7399,1.7476,1.7476,1.7529,1.7529,1.753]},{"header":{"parameterUnit":"m.s-1","parameterCategory":1,"la1":30.2991,"la2":30.254,"lo1":-89.0895,"lo2":-89.0444,"dy":0.0017,"dx":0.0017,"nx":28,"ny":28,"refTime":"2025-05-16T21:00:00:Z","depth":0,"parameterNumber":3,"parameterNumberName":"V-component_of_WINDS"},"data":[0,0,0,0,0,0,0,0,0,0,0,0,0,0,0,0,0,0,0,0,0,0,0,0,0,0,0,0,0,0,0,0,0,0,0,0,0,0,0,0,0,0,0,0,0,0,0,0,0,0,0,0,0,0,0,0,0,0,4.925,4.9249,0,4.9206,4.9205,4.9205,4.9145,4.9144,4.9143,4.9142,4.9095,4.9095,4.9094,0,0,0,0,0,0,0,0,0,0,0,0,0,4.9282,4.9282,4.925,4.9249,4.9249,4.9206,4.9205,4.9204,4.9145,4.9144,4.9143,4.9142,4.9095,4.9095,4.9094,0,0,0,0,0,0,0,0,0,0,0,0,0,4.9256,4.9282,4.925,4.9214,4.921,4.9206,4.9205,4.9204,4.9145,4.9144,4.9142,4.9141,4.9095,4.9095,4.9094,4.9121,0,0,4.9093,4.9093,0,0,0,0,0,0,0,0,4.9257,4.9255,4.922,4.9216,4.9212,4.9179,4.9199,4.9176,4.9146,4.917,4.9142,4.914,4.9124,4.9121,4.9116,4.9119,4.9117,4.9093,4.9092,4.9092,4.9092,0,0,0,0,0,0,0,4.9259,4.9256,4.9232,4.9219,4.9215,4.92,4.9194,4.9194,4.9156,4.9168,4.9163,4.9159,4.9122,4.9117,4.9115,4.9116,4.9093,4.9092,4.9092,4.9092,4.9139,4.914,0,0,0,0,0,0,4.9267,4.9258,4.9234,4.9231,4.9232,4.92,4.9194,4.9191,4.9156,4.9149,4.916,4.9156,4.9118,4.9115,4.9113,4.9142,4.9092,4.9092,4.9091,4.9137,4.9139,4.9141,0,0,0,0,0,0,4.9268,4.9265,4.9235,4.9243,4.9238,4.9201,4.9198,4.9191,4.9186,4.915,4.9143,4.9162,4.9117,4.9113,4.912,4.9139,4.9092,4.9091,4.9135,4.9138,4.914,4.92,0,0,0,0,0,0,4.9269,4.9266,4.9276,4.9244,4.9238,4.9244,4.92,4.9191,4.9186,4.918,4.915,4.9144,4.9116,4.9121,4.9119,4.9138,4.9091,4.9133,4.9136,4.9139,4.9196,4.9204,4.9211,0,0,0,0,0,4.927,4.9294,4.9276,4.9274,4.925,4.9245,4.9241,4.9209,4.9187,4.9197,4.9174,4.9145,4.9137,4.9122,4.9119,4.9138,4.9132,4.9135,4.9139,4.9193,4.9202,4.9211,0,0,0,0,0,0,4.9328,4.9289,4.9269,4.9284,4.9268,4.9235,4.9246,4.922,4.921,4.9205,4.9165,4.9159,4.917,4.9155,4.9138,4.9162,4.913,4.9133,4.9172,4.9181,4.9188,4.9191,4.909,0,0,0,0,0,4.9343,4.9342,4.9308,4.9324,4.9317,4.9283,4.928,4.9256,4.9238,4.9231,4.9208,4.9192,4.9186,4.9182,4.9175,4.9194,4.9186,4.9205,4.9213,4.9219,4.9222,4.9231,4.9239,4.9152,4.9152,4.9152,0,0,4.9372,4.9351,4.9353,4.9335,4.932,4.932,4.9278,4.9279,4.9279,4.9231,4.9236,4.9219,4.9197,4.921,4.9215,4.9198,4.9245,4.9224,4.9229,4.9228,4.9235,4.9244,4.9251,4.9154,4.9154,4.9154,0,0,4.9427,4.9411,4.9422,4.9409,4.9387,4.9364,4.9367,4.9338,4.9325,4.9329,4.9294,4.9292,4.9283,4.9269,4.9261,4.9311,4.9284,4.931,4.9348,4.9358,4.9364,4.937,4.9388,4.9395,4.9313,4.9313,4.9313,0,4.9466,4.9465,4.9431,4.9436,4.9429,4.9386,4.9398,4.9386,4.9363,4.9359,4.934,4.9328,4.9311,4.932,4.9332,4.9327,4.9329,4.9313,4.9366,4.9372,4.9377,4.9393,4.94,4.9317,4.9316,4.9316,4.9316,0,4.9515,4.9515,4.9527,4.9507,4.9501,4.9509,4.9476,4.9474,4.9452,4.9431,4.9436,4.9414,4.9401,4.9402,4.938,4.9408,4.9398,4.9374,4.9341,4.9389,4.9404,4.941,4.9321,4.932,4.9319,4.9318,0,0,4.9603,4.9565,4.957,4.956,4.9534,4.9533,4.9539,4.9528,4.9527,4.9513,4.9517,4.951,4.9487,4.9478,4.9454,4.9462,4.9504,4.9437,4.9435,4.945,4.9534,4.9552,4.956,4.9486,4.9487,4.9488,4.9535,0,4.9652,4.9661,4.9631,4.9647,4.9646,4.9607,4.9612,4.9596,4.9577,4.9574,4.9553,4.9549,4.9519,4.9514,4.952,4.9497,4.952,4.9494,4.9488,4.9489,4.9495,4.9568,4.9587,4.9633,4.9541,4.9542,4.9543,0,4.971,4.97,4.9716,4.969,4.9688,4.9694,4.9681,4.9678,4.966,4.9645,4.9636,4.9608,4.9612,4.9581,4.9586,4.9568,4.9565,4.9553,4.9554,4.9552,4.9518,4.9567,4.9647,4.9654,4.9552,4.9551,4.955,0,4.9773,4.9763,4.9772,4.9765,4.9734,4.9739,4.9726,4.9706,4.9701,4.969,4.9686,4.9676,4.967,4.9662,4.9632,4.9612,4.964,4.9607,4.9628,4.9629,4.9635,4.9635,4.9715,4.9634,4.9633,4.9633,4.9633,0,4.9831,4.9842,4.98,4.9805,4.9817,4.9782,4.9795,4.9778,4.9761,4.9762,4.9727,4.9729,4.9689,4.9687,4.9663,4.9671,4.9668,4.9656,4.965,4.9659,4.9661,4.9656,4.9652,4.9635,4.9635,4.9634,4.9634,0,4.9902,4.9875,4.9881,4.9852,4.9845,4.9855,4.9829,4.9833,4.9812,4.9814,4.9812,4.978,4.9775,4.9745,4.9733,4.9717,4.9733,4.972,4.9739,4.9735,4.9758,4.9756,4.9837,4.9846,4.976,4.976,4.9761,0,4.9941,4.9949,4.9921,4.9919,4.9908,4.9906,4.9901,4.9868,4.9864,4.9844,4.985,4.9843,4.9835,4.9829,4.9804,4.9795,4.9781,4.981,4.9779,4.9789,4.9781,4.9781,4.9782,4.9817,4.9818,4.9819,4.982,0,5.0012,4.9998,4.9992,4.9983,4.9978,4.9968,4.9957,4.9957,4.992,4.9918,4.9913,4.9907,4.9896,4.9888,4.9875,4.9861,4.9834,4.983,4.9834,4.9844,4.9854,4.9849,4.9757,4.9828,4.9827,4.9826,4.9826,4.9826,5.0067,5.0073,5.0054,5.0049,5.0037,5.0028,5.003,5.001,5.0005,4.9993,4.9974,4.9972,4.9953,4.9933,4.9921,4.9919,4.9903,4.991,4.9911,4.9913,4.9918,4.9855,4.9916,4.9916,4.9916,4.9916,4.9915,0,5.0136,5.0123,5.0119,5.0104,5.01,5.0076,5.0062,5.0061,5.006,5.0045,5.0038,5.0033,5.0026,5.0001,4.9992,4.9995,4.9982,4.9993,4.9992,4.999,4.9933,4.993,5.0004,5.0004,5.0004,5.0004,5.0004,5.0003,5.0172,5.018,5.0164,5.0166,5.0152,5.015,5.0144,5.0135,5.0123,5.0119,5.0113,5.0097,5.0078,5.0067,5.006,5.0053,5.0051,5.0066,5.0055,5.0002,4.9994,4.9986,4.9983,5.0066,5.0066,5.0112,5.0112,5.0113]}]]